Terug naar catalogus

INTELSAT 4

PAS 4

ActiefCommunicatieGEO
NORAD 23636·PAYLOAD· XX

Gelanceerd Aug 3, 1995 vanaf Guiana Space Centre

Loading…

TLE

VersSource: Space-Track

Epoch: Sep 14, 2026, 03:34 UTC

1 23636U 95040A   26257.14897707 -.00000143  00000-0  00000-0 0  9992
2 23636  12.1392  39.6622 0028423 231.7963 143.3379  0.97128323112018

Volg INTELSAT 4 in realtime met AllMySat

Download on the App Store